Lancaster, OH

4:07 AM EST on February 14, 2016 (GMT -0500)
Fairfield County

Weather History for KLHQ - August, 2013

Change the Weather History Date:

Wednesday, August 21, 2013

  Actual Average (KCMH) Record (KCMH)
Temperature  
Mean Temperature 70 °F 74 °F  
Max Temperature 84 °F 84 °F 99 °F (1936)
Min Temperature 57 °F 64 °F 44 °F (1950)
Degree Days  
Heating Degree Days 0 0  
Month to date heating degree days 0  
Since 1 June heating degree days 19  
Since 1 July heating degree days 0  
Cooling Degree Days 4 9  
Month to date cooling degree days 200  
Year to date cooling degree days 808  
Since 1 June cooling degree days 726  
Growing Degree Days 20 (Base 50)    
Moisture  
Dew Point 60 °F    
Average Humidity 91    
Maximum Humidity 100    
Minimum Humidity 63    
Precipitation  
Precipitation 0.01 in 0.11 in 1.40 in (1913)
Month to date precipitation 2.26  
Year to date precipitation 26.63  
Snow  
Snow 0.00 in 0.00 in 0.00 in ()
Month to date snowfall 0.0  
Since 1 June snowfall 0.0  
Since 1 July snowfall 0.0  
Snow Depth -    
Sea Level Pressure  
Sea Level Pressure 30.16 in    
Wind  
Wind Speed 0 mph (SSE)    
Max Wind Speed 7 mph    
Max Gust Speed -    
Visibility 4 miles    
Events Fog , Rain , Thunderstorm    
T = Trace of Precipitation, MM = Missing Value Source: NWS Daily Summary

Daily Weather History Graph

Daily Weather History Graph

Search for Another Location

Airport or City:

Trip Planner

Search our weather history database for the weather conditions in past years. The results will help you decide how hot, cold, wet, or windy it might be!

Date:

Astronomy

Aug. 21, 2013 Rise Set
Actual Time 6:48 AM EDT 8:18 PM EDT
Civil Twilight 6:20 AM EDT 8:46 PM EDT
Nautical Twilight 5:45 AM EDT 9:20 PM EDT
Astronomical Twilight 5:09 AM EDT 9:56 PM EDT
Moon 8:26 PM EDT (8/21) 7:27 AM EDT (8/21)
Length of Visible Light 14h 26m
Length of Day
13h 29m
Full, 100% of the Moon is Illuminated
Aug 21
Full
Aug 28
Last Quarter
Sep 5
New
Sep 12
First Quarter
Sep 19
Full

Hourly Weather History & Observations

Time (EDT) Temp. Heat Index Dew Point Humidity Pressure Visibility Wind Dir Wind Speed Gust Speed Precip Events Conditions
12:05 AM 60.8 °F - 59.0 °F 94% 30.18 in 3.0 mi Calm Calm - N/A   Clear
12:42 AM 60.8 °F - 57.2 °F 88% 30.18 in 2.0 mi Calm Calm - N/A   Clear
12:53 AM 59.0 °F - 57.9 °F 96% 30.17 in 1.0 mi Calm Calm - N/A   Clear
1:03 AM 60.8 °F - 59.0 °F 94% 30.18 in 2.0 mi Calm Calm - N/A   Clear
1:10 AM 59.0 °F - 59.0 °F 100% 30.18 in 2.5 mi Calm Calm - N/A   Clear
1:13 AM 60.8 °F - 59.0 °F 94% 30.18 in 1.0 mi Calm Calm - N/A   Clear
1:20 AM 59.0 °F - 57.2 °F 94% 30.18 in 0.8 mi Calm Calm - N/A   Clear
1:31 AM 57.2 °F - 57.2 °F 100% 30.18 in 0.2 mi Calm Calm - N/A Fog Fog
1:43 AM 59.0 °F - 57.2 °F 94% 30.18 in 1.5 mi Calm Calm - N/A   Partly Cloudy
1:45 AM 59.0 °F - 57.2 °F 94% 30.18 in 2.5 mi Calm Calm - N/A   Partly Cloudy
1:53 AM 59.0 °F - 57.9 °F 96% 30.16 in 3.0 mi Calm Calm - N/A   Partly Cloudy
2:02 AM 59.0 °F - 57.2 °F 94% 30.18 in 2.0 mi Calm Calm - N/A   Clear
2:10 AM 57.2 °F - 57.2 °F 100% 30.18 in 1.5 mi Calm Calm - N/A   Clear
2:22 AM 57.2 °F - 55.4 °F 94% 30.17 in 0.8 mi Calm Calm - N/A   Clear
2:42 AM 57.2 °F - 55.4 °F 94% 30.17 in 1.2 mi Calm Calm - N/A   Clear
2:47 AM 57.2 °F - 57.2 °F 100% 30.17 in 2.5 mi Calm Calm - N/A   Clear
2:53 AM 57.9 °F - 57.0 °F 97% 30.16 in 2.0 mi Calm Calm - N/A   Clear
2:57 AM 57.2 °F - 55.4 °F 94% 30.17 in 1.0 mi Calm Calm - N/A   Mist
3:03 AM 57.2 °F - 55.4 °F 94% 30.17 in 0.2 mi Calm Calm - N/A Fog Fog
3:12 AM 57.2 °F - 57.2 °F 100% 30.17 in 0.2 mi Calm Calm - N/A Fog Fog
3:34 AM 57.2 °F - 57.2 °F 100% 30.17 in 0.2 mi Calm Calm - N/A Fog Fog
3:45 AM 57.2 °F - 55.4 °F 94% 30.17 in 1.2 mi Calm Calm - N/A   Scattered Clouds
3:53 AM 57.0 °F - 55.9 °F 96% 30.15 in 2.0 mi Calm Calm - N/A   Scattered Clouds
4:03 AM 57.2 °F - 55.4 °F 94% 30.16 in 1.0 mi Calm Calm - N/A   Mist
4:06 AM 57.2 °F - 57.2 °F 100% 30.16 in 0.5 mi Calm Calm - N/A Fog Fog
4:10 AM 57.2 °F - 55.4 °F 94% 30.16 in 0.2 mi Calm Calm - N/A Fog Fog
4:18 AM 57.2 °F - 55.4 °F 94% 30.16 in 0.2 mi Calm Calm - N/A Fog Fog
4:26 AM 57.2 °F - 55.4 °F 94% 30.16 in 0.2 mi Calm Calm - N/A Fog Fog
4:53 AM 57.0 °F - 55.9 °F 96% 30.15 in 0.2 mi Calm Calm - N/A Fog Fog
5:03 AM 57.2 °F - 55.4 °F 94% 30.17 in 2.0 mi Calm Calm - N/A   Mostly Cloudy
5:05 AM 57.2 °F - 57.2 °F 100% 30.17 in 2.5 mi Calm Calm - N/A   Mostly Cloudy
5:25 AM 57.2 °F - 57.2 °F 100% 30.17 in 1.8 mi Calm Calm - N/A   Overcast
5:50 AM 60.8 °F - 59.0 °F 94% 30.17 in 2.0 mi Calm Calm - N/A   Overcast
5:53 AM 60.1 °F - 59.0 °F 96% 30.16 in 2.0 mi Calm Calm - N/A   Overcast
6:25 AM 60.8 °F - 59.0 °F 94% 30.17 in 2.5 mi Calm Calm - N/A   Overcast
6:33 AM 60.8 °F - 59.0 °F 94% 30.17 in 3.0 mi Calm Calm - N/A   Overcast
6:50 AM 60.8 °F - 59.0 °F 94% 30.18 in 2.0 mi Calm Calm - N/A   Overcast
6:53 AM 60.1 °F - 59.0 °F 96% 30.17 in 2.0 mi Calm Calm - N/A   Overcast
7:35 AM 62.6 °F - 60.8 °F 94% 30.19 in 1.8 mi Calm Calm - N/A   Overcast
7:49 AM 62.6 °F - 60.8 °F 94% 30.19 in 2.0 mi Calm Calm - N/A   Overcast
7:53 AM 63.0 °F - 61.0 °F 93% 30.18 in 2.0 mi Calm Calm - N/A   Overcast
8:18 AM 62.6 °F - 60.8 °F 94% 30.20 in 3.0 mi Calm Calm - N/A   Partly Cloudy
8:29 AM 64.4 °F - 62.6 °F 94% 30.20 in 2.5 mi Calm Calm - N/A   Scattered Clouds
8:53 AM 66.9 °F - 64.0 °F 90% 30.19 in 4.0 mi Calm Calm - N/A   Mostly Cloudy
9:53 AM 73.0 °F - 64.9 °F 76% 30.20 in 6.0 mi South 5.8 mph - N/A   Haze
10:53 AM 78.1 °F - 66.0 °F 66% 30.19 in 8.0 mi Variable 4.6 mph - N/A   Scattered Clouds
11:53 AM 79.0 °F - 66.0 °F 64% 30.18 in 9.0 mi SSW 4.6 mph - N/A   Scattered Clouds
12:53 PM 81.0 °F 83.8 °F 68.0 °F 65% 30.17 in 9.0 mi Calm Calm - N/A   Mostly Cloudy
1:53 PM 82.9 °F 86.5 °F 69.1 °F 63% 30.15 in 10.0 mi Calm Calm - N/A   Mostly Cloudy
2:53 PM 79.0 °F - 69.1 °F 72% 30.13 in 9.0 mi Calm Calm - N/A   Clear
3:18 PM 77.0 °F - 69.8 °F 78% 30.13 in 8.0 mi Calm Calm - N/A Thunderstorm Clear
3:53 PM 75.9 °F - 70.0 °F 82% 30.11 in 7.0 mi Calm Calm - 0.00 in Thunderstorm Mostly Cloudy
4:02 PM 77.0 °F - 69.8 °F 78% 30.13 in 7.0 mi SSE 5.8 mph - N/A   Overcast
4:53 PM 72.0 °F - 68.0 °F 87% 30.13 in 8.0 mi SE 6.9 mph - 0.00 in Rain Light Rain
5:53 PM 71.1 °F - 66.0 °F 84% 30.12 in 10.0 mi South 3.5 mph - 0.01 in Rain Light Rain
6:53 PM 70.0 °F - 64.0 °F 81% 30.10 in 10.0 mi Calm Calm - 0.00 in   Clear
7:53 PM 70.0 °F - 64.0 °F 81% 30.09 in 10.0 mi South 4.6 mph - N/A   Clear
8:53 PM 68.0 °F - 64.0 °F 87% 30.09 in 10.0 mi South 3.5 mph - N/A   Clear
9:53 PM 64.9 °F - 62.1 °F 90% 30.12 in 10.0 mi ESE 3.5 mph - N/A   Clear
10:53 PM 66.9 °F - 64.0 °F 90% 30.11 in 10.0 mi SSE 6.9 mph - N/A   Clear
11:53 PM 64.0 °F - 62.1 °F 93% 30.13 in 9.0 mi North 4.6 mph - N/A   Clear